Location: Baumgarten
(49.0970°N, 12.7493°E)
Time: 08:40:54
(UTC+00:00)

Cosmos 2366 rocket - Pass Details

Date: 05 July 2020
Orbit: 954 x 998 km, 82.9° (Epoch: 04 August)

Event Time Altitude Azimuth Distance (km) Brightness Sun altitude
Exits shadow 22:56:31 29° 185° (S) 1,746 4.7 -18.1°
Maximum altitude 23:00:02 87° 98° (E) 1,007 4.0 -18.2°
Drops below altitude 10° 23:06:26 10° 10° (N) 2,771 7.6 -18.2°
Sets 23:08:57 0° 10° (N) 3,720 8.6 -18.2°
